Location: Austin
(30.3000°N, 97.7500°W)
Time: 04:15:17
(UTC-05:00)

Cosmos 2016 Rocket - Pass Details

Date: 18 March 2023
Orbit: 946 x 1001 km, 83.0° (Epoch: 01 April)

Event Time Altitude Azimuth Distance (km) Brightness Sun altitude
Rises 21:35:36 0° 358° (N) 3,616 7.2 -25.3°
Reaches altitude 10° 21:38:08 10° 2° (N) 2,669 6.4 -25.8°
Enters shadow 21:43:31 59° 53° (NE) 1,083 4.0 -26.9°
